Wilmington, OH

9:47 AM EDT on September 26, 2017 (GMT -0400)
Airborne

Weather History for KILN - January, 2013

Change the Weather History Date:

Wednesday, January 9, 2013

  Actual Average (KFFO) Record (KFFO)
Temperature  
Mean Temperature 42 °F -  
Max Temperature 51 °F 35 °F 55 °F (2006)
Min Temperature 34 °F 20 °F 3 °F (1999)
Degree Days  
Heating Degree Days 22    
Moisture  
Dew Point 35 °F    
Average Humidity 75    
Maximum Humidity 97    
Minimum Humidity 52    
Precipitation  
Precipitation 0.04 in - - ()
Sea Level Pressure  
Sea Level Pressure 30.37 in    
Wind  
Wind Speed 9 mph (WSW)    
Max Wind Speed 17 mph    
Max Gust Speed 23 mph    
Visibility 10 miles    
Events Rain    
Averages and records for this station are not official NWS values.
T = Trace of Precipitation, MM = Missing Value Source: NWS Daily Summary

Daily Weather History Graph

Daily Weather History Graph

Search for Another Location

Airport or City:

Trip Planner

Search our weather history database for the weather conditions in past years. The results will help you decide how hot, cold, wet, or windy it might be!

Date:

Astronomy

Jan. 09, 2013 Rise Set
Actual Time 7:55 AM EST 5:29 PM EST
Civil Twilight 7:25 AM EST 5:59 PM EST
Nautical Twilight 6:52 AM EST 6:33 PM EST
Astronomical Twilight 6:19 AM EST 7:05 PM EST
Moon 5:33 AM EST (1/9) 3:30 PM EST (1/9)
Length of Visible Light 10h 34m
Length of Day
9h 34m
Waning Crescent, 6% of the Moon is Illuminated
Jan 9
Waning Crescent
Jan 11
New
Jan 18
First Quarter
Jan 26
Full
Feb 3
Last Quarter

Hourly Weather History & Observations

Time (EST) Temp. Windchill Dew Point Humidity Pressure Visibility Wind Dir Wind Speed Gust Speed Precip Events Conditions
12:54 AM 34.0 °F 29.8 °F 28.0 °F 79% 30.29 in 10.0 mi SSE 4.6 mph - N/A   Clear
1:54 AM 36.0 °F 31.1 °F 28.0 °F 73% 30.27 in 10.0 mi South 5.8 mph - N/A   Clear
2:54 AM 39.0 °F 32.8 °F 30.9 °F 73% 30.27 in 10.0 mi SSW 9.2 mph - N/A   Overcast
3:54 AM 39.0 °F 32.8 °F 33.1 °F 79% 30.26 in 10.0 mi SSW 9.2 mph - N/A   Mostly Cloudy
4:54 AM 39.9 °F 34.5 °F 35.1 °F 83% 30.26 in 10.0 mi SSW 8.1 mph - N/A   Overcast
5:54 AM 41.0 °F 34.7 °F 35.1 °F 79% 30.27 in 10.0 mi SSW 10.4 mph - 0.00 in   Mostly Cloudy
6:54 AM 45.0 °F 37.6 °F 37.0 °F 74% 30.29 in 10.0 mi WSW 17.3 mph - N/A   Overcast
7:54 AM 45.0 °F 38.5 °F 37.0 °F 74% 30.33 in 10.0 mi WSW 13.8 mph - N/A   Overcast
8:09 AM 44.6 °F 38.1 °F 37.4 °F 76% 30.28 in 10.0 mi WSW 13.8 mph - N/A   Overcast
8:45 AM 44.6 °F 38.8 °F 39.2 °F 81% 30.28 in 8.0 mi SW 11.5 mph - 0.00 in Rain Light Rain
8:54 AM 44.1 °F 37.7 °F 39.9 °F 85% 30.34 in 8.0 mi WSW 12.7 mph - 0.00 in Rain Light Rain
9:54 AM 43.0 °F 36.8 °F 42.1 °F 97% 30.36 in 6.0 mi West 11.5 mph - 0.03 in Rain Light Rain
10:54 AM 45.0 °F 39.7 °F 42.1 °F 90% 30.37 in 6.0 mi WSW 10.4 mph - 0.01 in   Mostly Cloudy
11:54 AM 46.9 °F - 44.1 °F 90% 30.37 in 8.0 mi WSW 13.8 mph 23.0 mph N/A   Clear
12:54 PM 48.9 °F - 42.1 °F 77% 30.36 in 10.0 mi West 13.8 mph - N/A   Clear
1:54 PM 50.0 °F - 41.0 °F 71% 30.35 in 10.0 mi West 11.5 mph - N/A   Clear
2:54 PM 51.1 °F - 39.9 °F 66% 30.38 in 10.0 mi West 13.8 mph - N/A   Clear
3:54 PM 51.1 °F - 34.0 °F 52% 30.40 in 10.0 mi West 12.7 mph - N/A   Clear
4:54 PM 48.0 °F - 36.0 °F 63% 30.42 in 10.0 mi WSW 6.9 mph - N/A   Clear
5:54 PM 45.0 °F 41.2 °F 35.1 °F 68% 30.44 in 10.0 mi West 6.9 mph - N/A   Clear
6:54 PM 44.1 °F 40.8 °F 33.1 °F 65% 30.48 in 10.0 mi WNW 5.8 mph - N/A   Clear
7:54 PM 41.0 °F 38.0 °F 30.0 °F 65% 30.50 in 10.0 mi WSW 4.6 mph - N/A   Clear
8:54 PM 39.9 °F 35.8 °F 28.9 °F 65% 30.51 in 10.0 mi WSW 5.8 mph - N/A   Clear
9:54 PM 36.0 °F 31.1 °F 28.0 °F 73% 30.54 in 10.0 mi WSW 5.8 mph - N/A   Clear
10:54 PM 36.0 °F - 28.0 °F 73% 30.56 in 10.0 mi Calm Calm - N/A   Clear
11:54 PM 36.0 °F 33.3 °F 28.9 °F 76% 30.55 in 10.0 mi West 3.5 mph - N/A   Clear